Hourly Data Report for October 30, 2013

All times are specified in Local Standard Time (LST). Add 1 hour to adjust for Daylight Saving Time where and when it is observed.

ARVIAT A
NUNAVUT

61°05'38.000" N
94°04'18.000" W
10.40 m
2300427
71174
YEK

Download Data

Hourly Data (October 2013)
Hourly Data Report for October 30, 2013
Temp Definition
°C
Dew Point Temp Definition
°C
Rel Hum Definition
%
Wind Dir Definition
10's deg

Wind Spd Definition
km/h
Visibility Definition
km
Stn Press Definition
kPa
Hmdx Definition


Wind Chill Definition


Weather Definition


TIME
00:00 Legend Double Dagger -12.7 -14.2 89 1 8 16.1 100.87   -18 LegendNANA
01:00 Legend Double Dagger -11.5 -12.8 90 4 8 16.1 100.77   -16 LegendNANA
02:00 Legend Double Dagger -8.4 -11.3 80 14 13 16.1 100.70   -14 LegendNANA
03:00 Legend Double Dagger -7.6 -10.6 79 15 17 16.1 100.63   -14 LegendNANA
04:00 Legend Double Dagger -6.9 -9.8 80 13 22 16.1 100.48   -14 LegendNANA
05:00 Legend Double Dagger -6.2 -9.3 79 13 30 16.1 100.34   -15 LegendNANA
06:00 Legend Double Dagger -5.5 -8.3 81 15 32 16.1 100.27   -14 LegendNANA
07:00 Legend Double Dagger -4.8 -7.2 84 14 37 14.5 100.12   -14 LegendNANA
08:00 Legend Double Dagger -4.3 -6.8 83 15 39 9.7 99.99   -13 LegendNANA
09:00 Legend Double Dagger -4.2 -5.0 94 14 42 1.6 99.83   -13 LegendNANA
10:00 Legend Double Dagger -3.4 -4.0 96 14 41 1.6 99.73   -12 LegendNANA
11:00 Legend Double Dagger -3.0 -3.4 97 16 37 0.6 99.62   -11 LegendNANA
12:00 Legend Double Dagger -2.7 -3.1 97 15 35 1.0 99.49   -11 LegendNANA
13:00 Legend Double Dagger -2.7 -3.1 97 14 33 1.2 99.36   -10 LegendNANA
14:00 Legend Double Dagger -2.2 -2.6 97 13 41 2.0 99.23   -10 LegendNANA
15:00 Legend Double Dagger -1.8 -2.4 96 13 46 2.8 99.13   -10 LegendNANA
16:00 Legend Double Dagger -1.5 -2.2 95 13 42 6.4 99.08   -10 LegendNANA
17:00 Legend Double Dagger -1.3 -2.1 94 13 42 4.8 99.04   -9 LegendNANA
18:00 Legend Double Dagger -1.4 -2.0 96 13 45 2.0 99.02   -10 LegendNANA
19:00 Legend Double Dagger -1.1 -1.5 97 12 33 2.8 98.99   -8 LegendNANA
20:00 Legend Double Dagger -1.1 -1.2 99 12 41 2.4 98.93   -9 LegendNANA
21:00 Legend Double Dagger -1.0 -1.1 99 12 41 2.0 98.91   -9 LegendNANA
22:00 Legend Double Dagger -1.0 -1.3 98 11 42 2.0 98.89   -9 LegendNANA
23:00 Legend Double Dagger -1.1 -1.4 98 10 39 1.6 98.90   -9 LegendNANA

Notes on Data Quality.

Legend

  • E = Estimated
  • M = Missing
  • NA = Not Available
  • ‡ = Partner data that is not subject to review by the National Climate Archives
Date modified: